FW1075 Weather Reports


time (UTC)temp
C
wind
direction
speed
KPH
gust
KPH
rain 1hr
cm
rain 24hr
cm
rain mn
cm
humidity
%
barometer
mb
20260904141122 27 18 8.0 14.5 0.00 0.08 0.08 78 1009.6
20260904140123 27 343 6.4 11.3 0.00 0.08 0.08 79 1009.6
20260904135125 27 310 8.0 14.5 0.00 0.08 0.08 81 1009.5
20260904134122 27 332 6.4 11.3 0.00 0.08 0.08 82 1009.5
20260904133120 26 310 6.4 11.3 0.00 0.08 0.08 83 1009.4
20260904132120 26 9 6.4 11.3 0.00 0.08 0.08 83 1009.5
20260904131141 26 350 4.8 11.3 0.00 0.08 0.08 86 1009.4
20260904130142 26 307 9.7 14.5 0.00 0.08 0.08 87 1009.4
20260904125141 25 334 8.0 11.3 0.00 0.08 0.08 88 1009.2
20260904124120 26 28 6.4 9.7 0.00 0.08 0.08 88 1009.4
20260904123124 25 358 6.4 12.9 0.00 0.08 0.08 91 1009.2
20260904122120 25 356 6.4 12.9 0.03 0.08 0.08 93 1009.2
20260904121120 25 13 8.0 16.1 0.03 0.08 0.08 93 1009.2
20260904120121 25 13 6.4 11.3 0.03 0.08 0.08 95 1009.2
20260904115120 25 282 4.8 11.3 0.03 0.08 0.08 98 1009.4
20260904114120 24 309 4.8 11.3 0.03 0.08 0.08 99 1009.2
20260904113120 24 281 4.8 8.0 0.03 0.08 0.08 99 1009.0
20260904112144 23 325 3.2 4.8 0.00 0.05 0.05 99 1008.9
20260904111120 23 320 3.2 8.0 0.00 0.05 0.05 99 1008.8
20260904110143 23 316 3.2 6.4 0.00 0.05 0.05 99 1008.8
20260904105123 22 317 3.2 8.0 0.00 0.05 0.05 99 1008.8
20260904104141 22 319 3.2 6.4 0.00 0.05 0.05 99 1008.7
20260904103143 22 295 3.2 6.4 0.00 0.05 0.05 99 1008.6
20260904102124 22 293 3.2 6.4 0.00 0.05 0.05 99 1008.7
20260904101122 22 281 3.2 4.8 0.00 0.05 0.05 99 1008.5
20260904100122 22 345 0.0 1.6 0.00 0.05 0.05 99 1008.5
20260904095124 22 270 0.0 0.0 0.00 0.05 0.05 99 1008.5
20260904094121 22 203 0.0 0.0 0.00 0.05 0.05 99 1008.2
20260904093122 22 180 0.0 0.0 0.00 0.05 0.05 99 1008.2
20260904092126 22 11 0.0 1.6 0.00 0.05 0.05 99 1008.1
20260904091122 22 270 0.0 1.6 0.00 0.05 0.05 99 1008.2
20260904090122 22 238 0.0 3.2 0.00 0.05 0.05 99 1008.2
20260904085142 22 255 0.0 3.2 0.00 0.05 0.05 99 1008.2
20260904084121 23 307 1.6 4.8 0.00 0.05 0.05 99 1008.2
20260904083121 23 280 0.0 3.2 0.00 0.05 0.05 99 1008.4
20260904082145 23 322 1.6 3.2 0.00 0.05 0.05 99 1008.5
20260904081121 23 338 0.0 0.0 0.00 0.05 0.05 99 1008.6
20260904080142 23 268 0.0 3.2 0.05 0.08 0.05 99 1008.6
20260904075123 23 252 3.2 4.8 0.05 0.08 0.05 99 1008.2
20260904074123 23 328 0.0 1.6 0.05 0.08 0.05 99 1007.9
20260904073121 23 104 1.6 3.2 0.05 0.10 0.05 99 1007.8
20260904072143 24 310 3.2 4.8 0.05 0.10 0.05 99 1007.9
20260904071122 25 350 4.8 11.3 0.05 0.15 0.05 99 1008.2
20260904070124 25 323 4.8 14.5 0.00 0.13 0.00 96 1008.2
20260904065126 25 295 4.8 11.3 0.00 0.15 0.00 94 1008.6
20260904064123 25 326 3.2 6.4 0.00 0.18 0.00 96 1008.6
20260904063122 25 319 1.6 4.8 0.00 0.18 0.00 97 1008.4
20260904062143 25 11 0.0 1.6 0.00 0.18 0.00 98 1008.5
20260904061122 25 0 0.0 1.6 0.00 0.18 0.00 99 1008.5
20260904060122 25 290 0.0 3.2 0.00 0.20 0.00 99 1008.5
20260904055125 25 252 1.6 6.4 0.00 0.20 0.00 99 1008.7
20260904054146 25 255 0.0 3.2 0.00 0.23 0.00 99 1009.1
20260904053122 25 262 0.0 3.2 0.00 0.23 0.00 99 1009.2
20260904052121 25 233 1.6 3.2 0.00 0.28 0.00 99 1009.2
20260904051121 25 203 0.0 0.0 0.00 0.41 0.00 98 1009.2
20260904050122 25 184 0.0 3.2 0.00 0.43 0.00 98 1009.5
20260904045121 25 226 0.0 3.2 0.00 0.43 0.00 98 1009.5
20260904044121 25 249 1.6 4.8 0.00 0.46 0.00 97 1009.7
20260904043122 25 240 1.6 4.8 0.00 0.46 0.00 97 1009.9
20260904042126 25 205 1.6 8.0 0.00 0.46 0.00 97 1010.0
20260904041123 25 258 1.6 4.8 0.00 0.46 0.00 97 1010.0
20260904040123 25 254 3.2 6.4 0.00 0.46 0.00 97 1010.0
20260904035126 25 248 0.0 4.8 0.00 0.46 0.46 97 1010.0
20260904034122 25 196 1.6 3.2 0.00 0.46 0.46 96 1009.8
20260904033124 25 233 1.6 4.8 0.00 0.46 0.46 96 1009.7
20260904032127 25 169 0.0 1.6 0.00 0.46 0.46 96 1009.8
20260904031122 25 218 1.6 3.2 0.00 0.46 0.46 96 1009.9
20260904030124 25 202 1.6 4.8 0.00 0.46 0.46 95 1009.9
20260904025122 25 203 0.0 0.0 0.00 0.46 0.46 95 1010.1
20260904024143 25 225 0.0 0.0 0.00 0.46 0.46 95 1010.2
20260904023122 25 270 0.0 1.6 0.00 0.46 0.46 95 1010.5
20260904022123 25 264 1.6 4.8 0.00 0.46 0.46 97 1010.7
20260904021127 25 243 0.0 3.2 0.00 0.46 0.46 97 1010.8
20260904020142 25 248 0.0 0.0 0.00 0.46 0.46 98 1010.8
20260904015121 25 248 0.0 0.0 0.00 0.46 0.46 98 1010.8
20260904014144 25 270 0.0 0.0 0.00 0.46 0.46 98 1010.9
20260904013121 25 225 0.0 0.0 0.00 0.46 0.46 98 1010.7
20260904012126 25 113 0.0 0.0 0.00 0.46 0.46 97 1010.8
20260904011127 25 315 0.0 0.0 0.00 0.46 0.46 97 1010.5
20260904010121 25 90 0.0 1.6 0.00 0.46 0.46 97 1010.5
20260904005122 25 203 0.0 0.0 0.00 0.46 0.46 97 1010.7
20260904004121 25 225 0.0 0.0 0.00 0.46 0.46 96 1010.8
20260904003148 25 158 0.0 0.0 0.00 0.46 0.46 95 1010.6
20260904002121 25 202 0.0 3.2 0.00 0.46 0.46 94 1010.5
20260904001121 25 169 0.0 3.2 0.00 0.46 0.46 94 1010.2
20260904000143 26 220 1.6 3.2 0.00 0.46 0.46 91 1010.2
20260903235142 26 208 1.6 3.2 0.00 0.46 0.46 91 1010.2
20260903234123 26 194 0.0 3.2 0.00 0.46 0.46 90 1010.1
20260903233122 26 88 0.0 3.2 0.00 0.46 0.46 89 1010.0
20260903232124 27 135 0.0 3.2 0.00 0.46 0.46 87 1010.0
20260903231121 27 151 1.6 3.2 0.00 0.46 0.46 86 1010.2
20260903230122 27 165 1.6 4.8 0.00 0.46 0.46 86 1010.2
20260903225122 27 179 3.2 4.8 0.00 0.46 0.46 84 1010.2
20260903224122 28 157 1.6 4.8 0.00 0.46 0.46 83 1010.2
20260903223143 28 208 3.2 6.4 0.00 0.46 0.46 81 1010.4
20260903222122 29 288 1.6 4.8 0.00 0.46 0.46 79 1010.2
20260903221124 29 182 3.2 4.8 0.00 0.46 0.46 78 1010.1
20260903220142 30 178 3.2 6.4 0.00 0.46 0.46 76 1010.2
20260903215121 30 206 3.2 4.8 0.00 0.46 0.46 74 1010.2
20260903214125 30 112 3.2 6.4 0.00 0.46 0.46 74 1010.1
20260903213123 31 292 1.6 4.8 0.00 0.46 0.46 68 1010.0
20260903212121 31 280 1.6 3.2 0.00 0.46 0.46 68 1010.0
20260903211145 31 288 1.6 3.2 0.00 0.46 0.46 69 1010.0
20260903210121 31 250 3.2 6.4 0.00 0.46 0.46 67 1010.0
20260903205210 31 253 3.2 4.8 0.00 0.46 0.46 68 1010.2
20260903205142 31 248 3.2 4.8 0.00 0.46 0.46 68 1010.2
20260903204121 32 318 3.2 6.4 0.00 0.46 0.46 66 1010.1
20260903203121 32 272 3.2 4.8 0.00 0.46 0.46 64 1010.0
20260903202122 32 265 4.8 8.0 0.00 0.46 0.46 66 1010.0
20260903201146 32 316 3.2 6.4 0.00 0.46 0.46 65 1010.2
20260903200126 32 320 4.8 8.0 0.00 0.46 0.46 65 1010.2
20260903195124 32 284 3.2 6.4 0.00 0.46 0.46 65 1010.2
20260903194123 32 243 4.8 12.9 0.00 0.91 0.46 65 1010.2
20260903193124 32 285 4.8 9.7 0.00 1.04 0.46 66 1010.4
20260903192122 32 260 4.8 8.0 0.00 1.07 0.46 66 1010.6
20260903191125 32 260 4.8 9.7 0.00 1.07 0.46 65 1010.9
20260903190143 31 264 4.8 11.3 0.00 1.07 0.46 66 1010.9
20260903185143 32 347 4.8 11.3 0.00 1.07 0.46 65 1010.9
20260903184146 32 334 4.8 11.3 0.00 1.07 0.46 64 1011.0
20260903183122 31 279 6.4 14.5 0.00 1.07 0.46 66 1011.0
20260903182143 31 30 4.8 11.3 0.00 1.07 0.46 66 1011.2
20260903181148 31 279 6.4 11.3 0.00 1.07 0.46 67 1011.4
20260903180123 31 263 6.4 12.9 0.00 1.07 0.46 67 1011.4
20260903175142 31 309 6.4 14.5 0.00 1.07 0.46 67 1011.4
20260903174145 31 315 4.8 9.7 0.00 1.07 0.46 70 1011.6
20260903173121 30 315 6.4 11.3 0.00 1.07 0.46 70 1011.8
20260903172142 30 274 6.4 12.9 0.00 1.07 0.46 71 1012.0
20260903171121 30 277 4.8 11.3 0.00 1.07 0.46 71 1012.2
20260903170145 29 274 4.8 12.9 0.00 1.07 0.46 75 1012.2
20260903165121 29 266 4.8 14.5 0.00 1.07 0.46 75 1012.2
20260903164122 29 263 4.8 8.0 0.00 1.07 0.46 74 1012.2
20260903163122 30 252 4.8 8.0 0.00 1.07 0.46 73 1012.2
20260903162121 28 257 4.8 11.3 0.00 1.07 0.46 76 1012.2
20260903161123 28 257 4.8 12.9 0.00 1.07 0.46 78 1012.8
20260903160121 27 229 4.8 12.9 0.00 1.07 0.46 81 1012.8
20260903155142 27 252 8.0 16.1 0.00 1.07 0.46 79 1012.9
20260903154121 27 291 4.8 8.0 0.00 1.07 0.46 82 1012.7
20260903153123 27 257 4.8 14.5 0.00 1.07 0.46 83 1012.8
20260903152122 27 264 6.4 9.7 0.00 1.07 0.46 84 1012.8
20260903151143 27 251 6.4 12.9 0.00 1.07 0.46 83 1012.9
20260903150123 27 283 4.8 11.3 0.00 1.07 0.46 86 1012.9
20260903145121 26 313 4.8 11.3 0.00 1.07 0.46 89 1012.8
20260903144122 26 219 4.8 9.7 0.00 1.07 0.46 90 1012.7
20260903143124 25 256 6.4 14.5 0.00 1.07 0.46 90 1012.9
20260903142123 25 261 6.4 12.9 0.00 1.07 0.46 91 1012.7